#datetime,building,power
2023-03-19T00:00:00,mfh,41.32
2023-03-19T00:01:00,mfh,41.24
2023-03-19T00:02:00,mfh,40.58
2023-03-19T00:03:00,mfh,40.66
2023-03-19T00:04:00,mfh,40.62
2023-03-19T00:05:00,mfh,42.05
2023-03-19T00:06:00,mfh,41.29
2023-03-19T00:07:00,mfh,41.35
2023-03-19T00:08:00,mfh,41.76
2023-03-19T00:09:00,mfh,41.47
2023-03-19T00:10:00,mfh,41.65
2023-03-19T00:11:00,mfh,41.47
2023-03-19T00:12:00,mfh,41.01
2023-03-19T00:13:00,mfh,41.14
2023-03-19T00:14:00,mfh,41.78
2023-03-19T00:15:00,mfh,41.66
2023-03-19T00:16:00,mfh,41.59
2023-03-19T00:17:00,mfh,41.53
2023-03-19T00:18:00,mfh,41.48
2023-03-19T00:19:00,mfh,41.47
2023-03-19T00:20:00,mfh,41.51
2023-03-19T00:21:00,mfh,40.76
2023-03-19T00:22:00,mfh,41.07
2023-03-19T00:23:00,mfh,40.98
2023-03-19T00:24:00,mfh,42.52
2023-03-19T00:25:00,mfh,41.55
2023-03-19T00:26:00,mfh,41.51
2023-03-19T00:27:00,mfh,41.34
2023-03-19T00:28:00,mfh,41.42
2023-03-19T00:29:00,mfh,41.31
2023-03-19T00:30:00,mfh,40.57
2023-03-19T00:31:00,mfh,41.20
2023-03-19T00:32:00,mfh,40.69
2023-03-19T00:33:00,mfh,41.29
2023-03-19T00:34:00,mfh,42.35
2023-03-19T00:35:00,mfh,41.54
2023-03-19T00:36:00,mfh,41.52
2023-03-19T00:37:00,mfh,42.63
2023-03-19T00:38:00,mfh,41.42
2023-03-19T00:39:00,mfh,40.73
2023-03-19T00:40:00,mfh,41.43
2023-03-19T00:41:00,mfh,40.79
2023-03-19T00:42:00,mfh,41.44
2023-03-19T00:43:00,mfh,41.46
2023-03-19T00:44:00,mfh,41.46
2023-03-19T00:45:00,mfh,41.57
2023-03-19T00:46:00,mfh,43.54
2023-03-19T00:47:00,mfh,43.99
2023-03-19T00:48:00,mfh,42.99
2023-03-19T00:49:00,mfh,43.80
2023-03-19T00:50:00,mfh,43.49
2023-03-19T00:51:00,mfh,43.34
2023-03-19T00:52:00,mfh,43.50
2023-03-19T00:53:00,mfh,43.44
2023-03-19T00:54:00,mfh,43.38
2023-03-19T00:55:00,mfh,43.40
2023-03-19T00:56:00,mfh,43.37
2023-03-19T00:57:00,mfh,43.37
2023-03-19T00:58:00,mfh,42.53
2023-03-19T00:59:00,mfh,43.12
2023-03-19T01:00:00,mfh,42.46
2023-03-19T01:01:00,mfh,42.42
2023-03-19T01:02:00,mfh,43.11
2023-03-19T01:03:00,mfh,43.02
2023-03-19T01:04:00,mfh,43.66
2023-03-19T01:05:00,mfh,43.03
2023-03-19T01:06:00,mfh,41.21
2023-03-19T01:07:00,mfh,58.05
2023-03-19T01:08:00,mfh,59.77
2023-03-19T01:09:00,mfh,67.63
2023-03-19T01:10:00,mfh,67.80
2023-03-19T01:11:00,mfh,67.78
2023-03-19T01:12:00,mfh,68.24
2023-03-19T01:13:00,mfh,66.92
2023-03-19T01:14:00,mfh,66.48
2023-03-19T01:15:00,mfh,66.71
2023-03-19T01:16:00,mfh,66.82
2023-03-19T01:17:00,mfh,66.18
2023-03-19T01:18:00,mfh,65.34
2023-03-19T01:19:00,mfh,64.98
2023-03-19T01:20:00,mfh,64.75
2023-03-19T01:21:00,mfh,64.40
2023-03-19T01:22:00,mfh,64.17
2023-03-19T01:23:00,mfh,64.10
2023-03-19T01:24:00,mfh,64.69
2023-03-19T01:25:00,mfh,64.05
2023-03-19T01:26:00,mfh,47.67
2023-03-19T01:27:00,mfh,39.35
2023-03-19T01:28:00,mfh,39.58
2023-03-19T01:29:00,mfh,39.60
2023-03-19T01:30:00,mfh,40.31
2023-03-19T01:31:00,mfh,40.53
2023-03-19T01:32:00,mfh,40.58
2023-03-19T01:33:00,mfh,40.52
2023-03-19T01:34:00,mfh,40.98
2023-03-19T01:35:00,mfh,40.85
2023-03-19T01:36:00,mfh,41.25
2023-03-19T01:37:00,mfh,40.59
2023-03-19T01:38:00,mfh,40.74
2023-03-19T01:39:00,mfh,40.75
2023-03-19T01:40:00,mfh,41.32
2023-03-19T01:41:00,mfh,42.94
2023-03-19T01:42:00,mfh,43.18
2023-03-19T01:43:00,mfh,43.25
2023-03-19T01:44:00,mfh,43.90
2023-03-19T01:45:00,mfh,43.41
2023-03-19T01:46:00,mfh,42.67
2023-03-19T01:47:00,mfh,41.01
2023-03-19T01:48:00,mfh,41.70
2023-03-19T01:49:00,mfh,41.67
2023-03-19T01:50:00,mfh,41.59
2023-03-19T01:51:00,mfh,41.65
2023-03-19T01:52:00,mfh,41.64
2023-03-19T01:53:00,mfh,41.63
2023-03-19T01:54:00,mfh,41.59
2023-03-19T01:55:00,mfh,41.62
2023-03-19T01:56:00,mfh,41.64
2023-03-19T01:57:00,mfh,41.00
2023-03-19T01:58:00,mfh,41.05
2023-03-19T01:59:00,mfh,40.99
2023-03-19T02:00:00,mfh,41.62
2023-03-19T02:01:00,mfh,41.52
2023-03-19T02:02:00,mfh,41.54
2023-03-19T02:03:00,mfh,41.51
2023-03-19T02:04:00,mfh,41.59
2023-03-19T02:05:00,mfh,41.69
2023-03-19T02:06:00,mfh,40.77
2023-03-19T02:07:00,mfh,42.69
2023-03-19T02:08:00,mfh,42.76
2023-03-19T02:09:00,mfh,43.47
2023-03-19T02:10:00,mfh,44.33
2023-03-19T02:11:00,mfh,43.86
2023-03-19T02:12:00,mfh,43.46
2023-03-19T02:13:00,mfh,43.36
2023-03-19T02:14:00,mfh,43.34
2023-03-19T02:15:00,mfh,43.02
2023-03-19T02:16:00,mfh,42.63
2023-03-19T02:17:00,mfh,42.92
2023-03-19T02:18:00,mfh,43.20
2023-03-19T02:19:00,mfh,43.28
2023-03-19T02:20:00,mfh,44.24
2023-03-19T02:21:00,mfh,43.91
2023-03-19T02:22:00,mfh,43.26
2023-03-19T02:23:00,mfh,43.48
2023-03-19T02:24:00,mfh,43.49
2023-03-19T02:25:00,mfh,42.84
2023-03-19T02:26:00,mfh,40.86
2023-03-19T02:27:00,mfh,40.86
2023-03-19T02:28:00,mfh,41.55
2023-03-19T02:29:00,mfh,42.05
2023-03-19T02:30:00,mfh,41.67
2023-03-19T02:31:00,mfh,41.63
2023-03-19T02:32:00,mfh,42.17
2023-03-19T02:33:00,mfh,41.71
2023-03-19T02:34:00,mfh,41.65
2023-03-19T02:35:00,mfh,41.11
2023-03-19T02:36:00,mfh,41.10
2023-03-19T02:37:00,mfh,41.18
2023-03-19T02:38:00,mfh,41.84
2023-03-19T02:39:00,mfh,41.79
2023-03-19T02:40:00,mfh,41.76
2023-03-19T02:41:00,mfh,41.87
2023-03-19T02:42:00,mfh,42.71
2023-03-19T02:43:00,mfh,41.74
2023-03-19T02:44:00,mfh,42.16
2023-03-19T02:45:00,mfh,41.44
2023-03-19T02:46:00,mfh,40.87
2023-03-19T02:47:00,mfh,41.52
2023-03-19T02:48:00,mfh,41.60
2023-03-19T02:49:00,mfh,41.55
2023-03-19T02:50:00,mfh,42.01
2023-03-19T02:51:00,mfh,42.04
2023-03-19T02:52:00,mfh,41.77
2023-03-19T02:53:00,mfh,42.11
2023-03-19T02:54:00,mfh,40.94
2023-03-19T02:55:00,mfh,41.04
2023-03-19T02:56:00,mfh,41.91
2023-03-19T02:57:00,mfh,41.66
2023-03-19T02:58:00,mfh,41.68
2023-03-19T02:59:00,mfh,41.66
2023-03-19T03:00:00,mfh,41.76
2023-03-19T03:01:00,mfh,41.66
2023-03-19T03:02:00,mfh,41.08
2023-03-19T03:03:00,mfh,40.99
2023-03-19T03:04:00,mfh,41.26
2023-03-19T03:05:00,mfh,41.41
2023-03-19T03:06:00,mfh,42.62
2023-03-19T03:07:00,mfh,43.30
2023-03-19T03:08:00,mfh,42.73
2023-03-19T03:09:00,mfh,42.82
2023-03-19T03:10:00,mfh,42.80
2023-03-19T03:11:00,mfh,42.96
2023-03-19T03:12:00,mfh,41.27
2023-03-19T03:13:00,mfh,41.80
2023-03-19T03:14:00,mfh,41.17
2023-03-19T03:15:00,mfh,41.70
2023-03-19T03:16:00,mfh,41.79
2023-03-19T03:17:00,mfh,41.66
2023-03-19T03:18:00,mfh,41.68
2023-03-19T03:19:00,mfh,42.10
2023-03-19T03:20:00,mfh,43.65
2023-03-19T03:21:00,mfh,42.93
2023-03-19T03:22:00,mfh,42.77
2023-03-19T03:23:00,mfh,42.87
2023-03-19T03:24:00,mfh,43.47
2023-03-19T03:25:00,mfh,43.42
2023-03-19T03:26:00,mfh,43.55
2023-03-19T03:27:00,mfh,43.50
2023-03-19T03:28:00,mfh,44.18
2023-03-19T03:29:00,mfh,43.55
2023-03-19T03:30:00,mfh,42.98
2023-03-19T03:31:00,mfh,43.13
2023-03-19T03:32:00,mfh,43.08
2023-03-19T03:33:00,mfh,43.03
2023-03-19T03:34:00,mfh,43.65
2023-03-19T03:35:00,mfh,43.66
2023-03-19T03:36:00,mfh,43.59
2023-03-19T03:37:00,mfh,43.60
2023-03-19T03:38:00,mfh,43.77
2023-03-19T03:39:00,mfh,43.46
2023-03-19T03:40:00,mfh,40.77
2023-03-19T03:41:00,mfh,40.81
2023-03-19T03:42:00,mfh,40.84
2023-03-19T03:43:00,mfh,41.44
2023-03-19T03:44:00,mfh,41.58
2023-03-19T03:45:00,mfh,41.77
2023-03-19T03:46:00,mfh,41.68
2023-03-19T03:47:00,mfh,41.80
2023-03-19T03:48:00,mfh,42.34
2023-03-19T03:49:00,mfh,41.77
2023-03-19T03:50:00,mfh,41.40
2023-03-19T03:51:00,mfh,41.64
2023-03-19T03:52:00,mfh,41.16
2023-03-19T03:53:00,mfh,41.82
2023-03-19T03:54:00,mfh,41.94
2023-03-19T03:55:00,mfh,42.32
2023-03-19T03:56:00,mfh,42.59
2023-03-19T03:57:00,mfh,41.86
2023-03-19T03:58:00,mfh,42.26
2023-03-19T03:59:00,mfh,41.25
2023-03-19T04:00:00,mfh,42.06
2023-03-19T04:01:00,mfh,41.32
2023-03-19T04:02:00,mfh,41.77
2023-03-19T04:03:00,mfh,42.26
2023-03-19T04:04:00,mfh,41.56
2023-03-19T04:05:00,mfh,41.64
2023-03-19T04:06:00,mfh,41.75
2023-03-19T04:07:00,mfh,41.63
2023-03-19T04:08:00,mfh,41.24
2023-03-19T04:09:00,mfh,41.38
2023-03-19T04:10:00,mfh,40.94
2023-03-19T04:11:00,mfh,42.86
2023-03-19T04:12:00,mfh,41.63
2023-03-19T04:13:00,mfh,41.82
2023-03-19T04:14:00,mfh,41.54
2023-03-19T04:15:00,mfh,41.80
2023-03-19T04:16:00,mfh,41.85
2023-03-19T04:17:00,mfh,41.81
2023-03-19T04:18:00,mfh,41.02
2023-03-19T04:19:00,mfh,40.86
2023-03-19T04:20:00,mfh,40.95
2023-03-19T04:21:00,mfh,41.56
2023-03-19T04:22:00,mfh,41.57
2023-03-19T04:23:00,mfh,41.52
2023-03-19T04:24:00,mfh,41.73
2023-03-19T04:25:00,mfh,41.52
2023-03-19T04:26:00,mfh,41.54
2023-03-19T04:27:00,mfh,41.62
2023-03-19T04:28:00,mfh,41.40
2023-03-19T04:29:00,mfh,42.95
2023-03-19T04:30:00,mfh,43.22
2023-03-19T04:31:00,mfh,44.15
2023-03-19T04:32:00,mfh,43.79
2023-03-19T04:33:00,mfh,43.80
2023-03-19T04:34:00,mfh,43.82
2023-03-19T04:35:00,mfh,43.68
2023-03-19T04:36:00,mfh,43.59
2023-03-19T04:37:00,mfh,43.06
2023-03-19T04:38:00,mfh,42.95
2023-03-19T04:39:00,mfh,42.78
2023-03-19T04:40:00,mfh,42.84
2023-03-19T04:41:00,mfh,44.13
2023-03-19T04:42:00,mfh,43.50
2023-03-19T04:43:00,mfh,43.81
2023-03-19T04:44:00,mfh,43.98
2023-03-19T04:45:00,mfh,43.73
2023-03-19T04:46:00,mfh,43.97
2023-03-19T04:47:00,mfh,43.26
2023-03-19T04:48:00,mfh,43.15
2023-03-19T04:49:00,mfh,43.00
2023-03-19T04:50:00,mfh,43.53
2023-03-19T04:51:00,mfh,41.60
2023-03-19T04:52:00,mfh,42.51
2023-03-19T04:53:00,mfh,43.19
2023-03-19T04:54:00,mfh,42.62
2023-03-19T04:55:00,mfh,42.58
2023-03-19T04:56:00,mfh,42.03
2023-03-19T04:57:00,mfh,42.09
2023-03-19T04:58:00,mfh,41.21
2023-03-19T04:59:00,mfh,41.96
2023-03-19T05:00:00,mfh,41.94
2023-03-19T05:01:00,mfh,61.20
2023-03-19T05:02:00,mfh,63.39
2023-03-19T05:03:00,mfh,64.14
2023-03-19T05:04:00,mfh,63.67
2023-03-19T05:05:00,mfh,63.74
2023-03-19T05:06:00,mfh,62.89
2023-03-19T05:07:00,mfh,62.27
2023-03-19T05:08:00,mfh,61.65
2023-03-19T05:09:00,mfh,61.65
2023-03-19T05:10:00,mfh,62.84
2023-03-19T05:11:00,mfh,63.75
2023-03-19T05:12:00,mfh,63.12
2023-03-19T05:13:00,mfh,62.98
2023-03-19T05:14:00,mfh,63.13
2023-03-19T05:15:00,mfh,64.08
2023-03-19T05:16:00,mfh,62.21
2023-03-19T05:17:00,mfh,62.40
2023-03-19T05:18:00,mfh,62.55
2023-03-19T05:19:00,mfh,63.26
2023-03-19T05:20:00,mfh,63.11
2023-03-19T05:21:00,mfh,63.03
2023-03-19T05:22:00,mfh,62.91
2023-03-19T05:23:00,mfh,62.97
2023-03-19T05:24:00,mfh,63.10
2023-03-19T05:25:00,mfh,62.36
2023-03-19T05:26:00,mfh,62.17
2023-03-19T05:27:00,mfh,62.24
2023-03-19T05:28:00,mfh,62.82
2023-03-19T05:29:00,mfh,62.97
2023-03-19T05:30:00,mfh,63.14
2023-03-19T05:31:00,mfh,62.81
2023-03-19T05:32:00,mfh,63.11
2023-03-19T05:33:00,mfh,63.19
2023-03-19T05:34:00,mfh,62.50
2023-03-19T05:35:00,mfh,62.43
2023-03-19T05:36:00,mfh,62.23
2023-03-19T05:37:00,mfh,64.33
2023-03-19T05:38:00,mfh,64.95
2023-03-19T05:39:00,mfh,64.89
2023-03-19T05:40:00,mfh,64.89
2023-03-19T05:41:00,mfh,65.22
2023-03-19T05:42:00,mfh,64.43
2023-03-19T05:43:00,mfh,64.43
2023-03-19T05:44:00,mfh,63.76
2023-03-19T05:45:00,mfh,64.73
2023-03-19T05:46:00,mfh,63.81
2023-03-19T05:47:00,mfh,64.48
2023-03-19T05:48:00,mfh,64.43
2023-03-19T05:49:00,mfh,64.44
2023-03-19T05:50:00,mfh,64.83
2023-03-19T05:51:00,mfh,64.76
2023-03-19T05:52:00,mfh,64.66
2023-03-19T05:53:00,mfh,63.90
2023-03-19T05:54:00,mfh,63.88
2023-03-19T05:55:00,mfh,63.99
2023-03-19T05:56:00,mfh,64.29
2023-03-19T05:57:00,mfh,65.01
2023-03-19T05:58:00,mfh,65.04
2023-03-19T05:59:00,mfh,66.45
2023-03-19T06:00:00,mfh,63.06
2023-03-19T06:01:00,mfh,63.97
2023-03-19T06:02:00,mfh,62.70
2023-03-19T06:03:00,mfh,62.52
2023-03-19T06:04:00,mfh,62.47
2023-03-19T06:05:00,mfh,62.45
2023-03-19T06:06:00,mfh,63.25
2023-03-19T06:07:00,mfh,63.23
2023-03-19T06:08:00,mfh,63.34
2023-03-19T06:09:00,mfh,63.34
2023-03-19T06:10:00,mfh,63.77
2023-03-19T06:11:00,mfh,63.29
2023-03-19T06:12:00,mfh,62.51
2023-03-19T06:13:00,mfh,62.62
2023-03-19T06:14:00,mfh,62.52
2023-03-19T06:15:00,mfh,61.93
2023-03-19T06:16:00,mfh,62.74
2023-03-19T06:17:00,mfh,62.88
2023-03-19T06:18:00,mfh,62.69
2023-03-19T06:19:00,mfh,63.00
2023-03-19T06:20:00,mfh,62.80
2023-03-19T06:21:00,mfh,61.91
2023-03-19T06:22:00,mfh,62.30
2023-03-19T06:23:00,mfh,62.01
2023-03-19T06:24:00,mfh,61.59
2023-03-19T06:25:00,mfh,64.66
2023-03-19T06:26:00,mfh,63.93
2023-03-19T06:27:00,mfh,64.13
2023-03-19T06:28:00,mfh,64.16
2023-03-19T06:29:00,mfh,64.22
2023-03-19T06:30:00,mfh,63.97
2023-03-19T06:31:00,mfh,63.51
2023-03-19T06:32:00,mfh,61.83
2023-03-19T06:33:00,mfh,62.02
2023-03-19T06:34:00,mfh,62.73
2023-03-19T06:35:00,mfh,62.87
2023-03-19T06:36:00,mfh,62.58
2023-03-19T06:37:00,mfh,62.38
2023-03-19T06:38:00,mfh,63.30
2023-03-19T06:39:00,mfh,63.99
2023-03-19T06:40:00,mfh,62.80
2023-03-19T06:41:00,mfh,62.71
2023-03-19T06:42:00,mfh,63.18
2023-03-19T06:43:00,mfh,63.25
2023-03-19T06:44:00,mfh,62.85
2023-03-19T06:45:00,mfh,62.78
2023-03-19T06:46:00,mfh,64.67
2023-03-19T06:47:00,mfh,64.75
2023-03-19T06:48:00,mfh,64.86
2023-03-19T06:49:00,mfh,65.19
2023-03-19T06:50:00,mfh,63.93
2023-03-19T06:51:00,mfh,63.55
2023-03-19T06:52:00,mfh,63.53
2023-03-19T06:53:00,mfh,64.28
2023-03-19T06:54:00,mfh,64.76
2023-03-19T06:55:00,mfh,64.48
2023-03-19T06:56:00,mfh,64.48
2023-03-19T06:57:00,mfh,64.38
2023-03-19T06:58:00,mfh,64.54
2023-03-19T06:59:00,mfh,64.42
2023-03-19T07:00:00,mfh,63.67
2023-03-19T07:01:00,mfh,63.62
2023-03-19T07:02:00,mfh,64.36
2023-03-19T07:03:00,mfh,64.31
2023-03-19T07:04:00,mfh,64.45
2023-03-19T07:05:00,mfh,64.45
2023-03-19T07:06:00,mfh,64.55
2023-03-19T07:07:00,mfh,65.01
2023-03-19T07:08:00,mfh,64.53
2023-03-19T07:09:00,mfh,63.73
2023-03-19T07:10:00,mfh,61.69
2023-03-19T07:11:00,mfh,62.34
2023-03-19T07:12:00,mfh,62.16
2023-03-19T07:13:00,mfh,62.61
2023-03-19T07:14:00,mfh,62.27
2023-03-19T07:15:00,mfh,62.28
2023-03-19T07:16:00,mfh,62.50
2023-03-19T07:17:00,mfh,62.92
2023-03-19T07:18:00,mfh,62.57
2023-03-19T07:19:00,mfh,62.69
2023-03-19T07:20:00,mfh,63.37
2023-03-19T07:21:00,mfh,64.08
2023-03-19T07:22:00,mfh,64.71
2023-03-19T07:23:00,mfh,64.03
2023-03-19T07:24:00,mfh,64.76
2023-03-19T07:25:00,mfh,64.94
2023-03-19T07:26:00,mfh,65.48
2023-03-19T07:27:00,mfh,65.10
2023-03-19T07:28:00,mfh,64.59
2023-03-19T07:29:00,mfh,64.80
2023-03-19T07:30:00,mfh,65.15
2023-03-19T07:31:00,mfh,65.06
2023-03-19T07:32:00,mfh,65.16
2023-03-19T07:33:00,mfh,65.37
2023-03-19T07:34:00,mfh,65.14
2023-03-19T07:35:00,mfh,65.26
2023-03-19T07:36:00,mfh,64.21
2023-03-19T07:37:00,mfh,64.46
2023-03-19T07:38:00,mfh,64.25
2023-03-19T07:39:00,mfh,64.91
2023-03-19T07:40:00,mfh,64.79
2023-03-19T07:41:00,mfh,64.33
2023-03-19T07:42:00,mfh,64.39
2023-03-19T07:43:00,mfh,63.59
2023-03-19T07:44:00,mfh,63.78
2023-03-19T07:45:00,mfh,62.80
2023-03-19T07:46:00,mfh,62.69
2023-03-19T07:47:00,mfh,62.94
2023-03-19T07:48:00,mfh,63.69
2023-03-19T07:49:00,mfh,62.89
2023-03-19T07:50:00,mfh,63.08
2023-03-19T07:51:00,mfh,62.93
2023-03-19T07:52:00,mfh,63.10
2023-03-19T07:53:00,mfh,64.94
2023-03-19T07:54:00,mfh,64.44
2023-03-19T07:55:00,mfh,64.42
2023-03-19T07:56:00,mfh,64.10
2023-03-19T07:57:00,mfh,64.86
2023-03-19T07:58:00,mfh,65.08
2023-03-19T07:59:00,mfh,64.80
2023-03-19T08:00:00,mfh,64.96
2023-03-19T08:01:00,mfh,64.37
2023-03-19T08:02:00,mfh,64.49
2023-03-19T08:03:00,mfh,65.30
2023-03-19T08:04:00,mfh,63.69
2023-03-19T08:05:00,mfh,63.59
2023-03-19T08:06:00,mfh,63.63
2023-03-19T08:07:00,mfh,64.17
2023-03-19T08:08:00,mfh,64.19
2023-03-19T08:09:00,mfh,64.25
2023-03-19T08:10:00,mfh,64.09
2023-03-19T08:11:00,mfh,64.07
2023-03-19T08:12:00,mfh,64.44
2023-03-19T08:13:00,mfh,64.37
2023-03-19T08:14:00,mfh,64.34
2023-03-19T08:15:00,mfh,64.51
2023-03-19T08:16:00,mfh,62.52
2023-03-19T08:17:00,mfh,62.48
2023-03-19T08:18:00,mfh,62.51
2023-03-19T08:19:00,mfh,62.67
2023-03-19T08:20:00,mfh,62.80
2023-03-19T08:21:00,mfh,63.08
2023-03-19T08:22:00,mfh,62.86
2023-03-19T08:23:00,mfh,62.36
2023-03-19T08:24:00,mfh,63.00
2023-03-19T08:25:00,mfh,63.50
2023-03-19T08:26:00,mfh,64.10
2023-03-19T08:27:00,mfh,64.03
2023-03-19T08:28:00,mfh,63.94
2023-03-19T08:29:00,mfh,64.06
2023-03-19T08:30:00,mfh,64.00
2023-03-19T08:31:00,mfh,66.96
2023-03-19T08:32:00,mfh,66.83
2023-03-19T08:33:00,mfh,66.58
2023-03-19T08:34:00,mfh,67.10
2023-03-19T08:35:00,mfh,67.28
2023-03-19T08:36:00,mfh,67.13
2023-03-19T08:37:00,mfh,67.08
2023-03-19T08:38:00,mfh,66.93
2023-03-19T08:39:00,mfh,67.00
2023-03-19T08:40:00,mfh,66.98
2023-03-19T08:41:00,mfh,66.55
2023-03-19T08:42:00,mfh,66.60
2023-03-19T08:43:00,mfh,66.41
2023-03-19T08:44:00,mfh,66.48
2023-03-19T08:45:00,mfh,66.42
2023-03-19T08:46:00,mfh,67.03
2023-03-19T08:47:00,mfh,67.54
2023-03-19T08:48:00,mfh,66.25
2023-03-19T08:49:00,mfh,66.40
2023-03-19T08:50:00,mfh,66.69
2023-03-19T08:51:00,mfh,66.64
2023-03-19T08:52:00,mfh,66.69
2023-03-19T08:53:00,mfh,67.42
2023-03-19T08:54:00,mfh,66.69
2023-03-19T08:55:00,mfh,66.68
2023-03-19T08:56:00,mfh,66.67
2023-03-19T08:57:00,mfh,67.17
2023-03-19T08:58:00,mfh,66.78
2023-03-19T08:59:00,mfh,66.94
2023-03-19T09:00:00,mfh,66.86
2023-03-19T09:01:00,mfh,66.40
2023-03-19T09:02:00,mfh,76.25
2023-03-19T09:03:00,mfh,77.41
2023-03-19T09:04:00,mfh,78.01
2023-03-19T09:05:00,mfh,78.09
2023-03-19T09:06:00,mfh,77.87
2023-03-19T09:07:00,mfh,77.96
2023-03-19T09:08:00,mfh,77.79
2023-03-19T09:09:00,mfh,77.80
2023-03-19T09:10:00,mfh,77.83
2023-03-19T09:11:00,mfh,77.76
2023-03-19T09:12:00,mfh,78.38
2023-03-19T09:13:00,mfh,77.63
2023-03-19T09:14:00,mfh,78.17
2023-03-19T09:15:00,mfh,77.54
2023-03-19T09:16:00,mfh,77.50
2023-03-19T09:17:00,mfh,77.62
2023-03-19T09:18:00,mfh,78.09
2023-03-19T09:19:00,mfh,77.10
2023-03-19T09:20:00,mfh,76.99
2023-03-19T09:21:00,mfh,77.36
2023-03-19T09:22:00,mfh,77.73
2023-03-19T09:23:00,mfh,77.70
2023-03-19T09:24:00,mfh,77.61
2023-03-19T09:25:00,mfh,76.98
2023-03-19T09:26:00,mfh,76.95
2023-03-19T09:27:00,mfh,77.00
2023-03-19T09:28:00,mfh,76.90
2023-03-19T09:29:00,mfh,77.25
2023-03-19T09:30:00,mfh,77.55
2023-03-19T09:31:00,mfh,76.97
2023-03-19T09:32:00,mfh,76.40
2023-03-19T09:33:00,mfh,76.45
2023-03-19T09:34:00,mfh,76.31
2023-03-19T09:35:00,mfh,76.88
2023-03-19T09:36:00,mfh,76.83
2023-03-19T09:37:00,mfh,77.25
2023-03-19T09:38:00,mfh,76.78
2023-03-19T09:39:00,mfh,77.28
2023-03-19T09:40:00,mfh,76.70
2023-03-19T09:41:00,mfh,76.53
2023-03-19T09:42:00,mfh,76.55
2023-03-19T09:43:00,mfh,76.89
2023-03-19T09:44:00,mfh,76.78
2023-03-19T09:45:00,mfh,76.80
2023-03-19T09:46:00,mfh,76.85
2023-03-19T09:47:00,mfh,76.90
2023-03-19T09:48:00,mfh,76.83
2023-03-19T09:49:00,mfh,72.80
2023-03-19T09:50:00,mfh,72.24
2023-03-19T09:51:00,mfh,72.48
2023-03-19T09:52:00,mfh,73.18
2023-03-19T09:53:00,mfh,73.05
2023-03-19T09:54:00,mfh,73.12
2023-03-19T09:55:00,mfh,72.97
2023-03-19T09:56:00,mfh,72.87
2023-03-19T09:57:00,mfh,66.99
2023-03-19T09:58:00,mfh,66.87
2023-03-19T09:59:00,mfh,66.88
2023-03-19T10:00:00,mfh,66.74
2023-03-19T10:01:00,mfh,66.81
2023-03-19T10:02:00,mfh,66.99
2023-03-19T10:03:00,mfh,82.60
2023-03-19T10:04:00,mfh,84.18
2023-03-19T10:05:00,mfh,84.16
2023-03-19T10:06:00,mfh,84.22
2023-03-19T10:07:00,mfh,84.38
2023-03-19T10:08:00,mfh,84.34
2023-03-19T10:09:00,mfh,86.30
2023-03-19T10:10:00,mfh,86.64
2023-03-19T10:11:00,mfh,86.58
2023-03-19T10:12:00,mfh,86.25
2023-03-19T10:13:00,mfh,86.10
2023-03-19T10:14:00,mfh,86.15
2023-03-19T10:15:00,mfh,86.27
2023-03-19T10:16:00,mfh,86.12
2023-03-19T10:17:00,mfh,86.11
2023-03-19T10:18:00,mfh,85.93
2023-03-19T10:19:00,mfh,81.12
2023-03-19T10:20:00,mfh,81.37
2023-03-19T10:21:00,mfh,80.98
2023-03-19T10:22:00,mfh,80.98
2023-03-19T10:23:00,mfh,81.00
2023-03-19T10:24:00,mfh,80.92
2023-03-19T10:25:00,mfh,80.94
2023-03-19T10:26:00,mfh,81.39
2023-03-19T10:27:00,mfh,81.39
2023-03-19T10:28:00,mfh,81.44
2023-03-19T10:29:00,mfh,81.44
2023-03-19T10:30:00,mfh,81.54
2023-03-19T10:31:00,mfh,82.26
2023-03-19T10:32:00,mfh,81.67
2023-03-19T10:33:00,mfh,81.62
2023-03-19T10:34:00,mfh,81.04
2023-03-19T10:35:00,mfh,82.10
2023-03-19T10:36:00,mfh,81.03
2023-03-19T10:37:00,mfh,81.31
2023-03-19T10:38:00,mfh,81.67
2023-03-19T10:39:00,mfh,81.66
2023-03-19T10:40:00,mfh,81.70
2023-03-19T10:41:00,mfh,81.64
2023-03-19T10:42:00,mfh,81.55
2023-03-19T10:43:00,mfh,80.95
2023-03-19T10:44:00,mfh,80.85
2023-03-19T10:45:00,mfh,80.73
2023-03-19T10:46:00,mfh,81.57
2023-03-19T10:47:00,mfh,80.64
2023-03-19T10:48:00,mfh,86.26
2023-03-19T10:49:00,mfh,85.86
2023-03-19T10:50:00,mfh,85.81
2023-03-19T10:51:00,mfh,85.42
2023-03-19T10:52:00,mfh,85.37
2023-03-19T10:53:00,mfh,85.19
2023-03-19T10:54:00,mfh,85.45
2023-03-19T10:55:00,mfh,85.38
2023-03-19T10:56:00,mfh,85.25
2023-03-19T10:57:00,mfh,85.28
2023-03-19T10:58:00,mfh,85.24
2023-03-19T10:59:00,mfh,85.26
2023-03-19T11:00:00,mfh,80.45
2023-03-19T11:01:00,mfh,80.59
2023-03-19T11:02:00,mfh,81.39
2023-03-19T11:03:00,mfh,80.56
2023-03-19T11:04:00,mfh,81.35
2023-03-19T11:05:00,mfh,80.53
2023-03-19T11:06:00,mfh,80.10
2023-03-19T11:07:00,mfh,79.83
2023-03-19T11:08:00,mfh,80.08
2023-03-19T11:09:00,mfh,80.78
2023-03-19T11:10:00,mfh,80.69
2023-03-19T11:11:00,mfh,80.69
2023-03-19T11:12:00,mfh,77.85
2023-03-19T11:13:00,mfh,73.95
2023-03-19T11:14:00,mfh,67.77
2023-03-19T11:15:00,mfh,71.17
2023-03-19T11:16:00,mfh,81.19
2023-03-19T11:17:00,mfh,81.18
2023-03-19T11:18:00,mfh,81.18
2023-03-19T11:19:00,mfh,81.00
2023-03-19T11:20:00,mfh,81.65
2023-03-19T11:21:00,mfh,81.46
2023-03-19T11:22:00,mfh,81.37
2023-03-19T11:23:00,mfh,80.25
2023-03-19T11:24:00,mfh,80.25
2023-03-19T11:25:00,mfh,80.84
2023-03-19T11:26:00,mfh,80.78
2023-03-19T11:27:00,mfh,81.14
2023-03-19T11:28:00,mfh,81.06
2023-03-19T11:29:00,mfh,80.52
2023-03-19T11:30:00,mfh,80.85
2023-03-19T11:31:00,mfh,81.45
2023-03-19T11:32:00,mfh,81.22
2023-03-19T11:33:00,mfh,80.85
2023-03-19T11:34:00,mfh,75.83
2023-03-19T11:35:00,mfh,76.09
2023-03-19T11:36:00,mfh,72.86
2023-03-19T11:37:00,mfh,72.28
2023-03-19T11:38:00,mfh,72.13
2023-03-19T11:39:00,mfh,73.42
2023-03-19T11:40:00,mfh,73.37
2023-03-19T11:41:00,mfh,72.99
2023-03-19T11:42:00,mfh,73.12
2023-03-19T11:43:00,mfh,72.90
2023-03-19T11:44:00,mfh,73.02
2023-03-19T11:45:00,mfh,73.27
2023-03-19T11:46:00,mfh,73.18
2023-03-19T11:47:00,mfh,72.36
2023-03-19T11:48:00,mfh,72.61
2023-03-19T11:49:00,mfh,72.14
2023-03-19T11:50:00,mfh,72.44
2023-03-19T11:51:00,mfh,72.24
2023-03-19T11:52:00,mfh,72.28
2023-03-19T11:53:00,mfh,72.22
2023-03-19T11:54:00,mfh,71.70
2023-03-19T11:55:00,mfh,71.84
2023-03-19T11:56:00,mfh,71.91
2023-03-19T11:57:00,mfh,72.43
2023-03-19T11:58:00,mfh,72.49
2023-03-19T11:59:00,mfh,72.39
2023-03-19T12:00:00,mfh,73.08
2023-03-19T12:01:00,mfh,72.35
2023-03-19T12:02:00,mfh,73.24
2023-03-19T12:03:00,mfh,72.58
2023-03-19T12:04:00,mfh,72.85
2023-03-19T12:05:00,mfh,72.75
2023-03-19T12:06:00,mfh,72.83
2023-03-19T12:07:00,mfh,72.72
2023-03-19T12:08:00,mfh,72.12
2023-03-19T12:09:00,mfh,72.17
2023-03-19T12:10:00,mfh,72.71
2023-03-19T12:11:00,mfh,72.82
2023-03-19T12:12:00,mfh,72.62
2023-03-19T12:13:00,mfh,72.65
2023-03-19T12:14:00,mfh,72.93
2023-03-19T12:15:00,mfh,72.62
2023-03-19T12:16:00,mfh,72.72
2023-03-19T12:17:00,mfh,72.73
2023-03-19T12:18:00,mfh,72.98
2023-03-19T12:19:00,mfh,73.33
2023-03-19T12:20:00,mfh,72.59
2023-03-19T12:21:00,mfh,72.22
2023-03-19T12:22:00,mfh,67.55
2023-03-19T12:23:00,mfh,72.39
2023-03-19T12:24:00,mfh,72.53
2023-03-19T12:25:00,mfh,72.36
2023-03-19T12:26:00,mfh,79.28
2023-03-19T12:27:00,mfh,78.66
2023-03-19T12:28:00,mfh,79.10
2023-03-19T12:29:00,mfh,79.60
2023-03-19T12:30:00,mfh,79.51
2023-03-19T12:31:00,mfh,79.45
2023-03-19T12:32:00,mfh,79.12
2023-03-19T12:33:00,mfh,78.47
2023-03-19T12:34:00,mfh,79.13
2023-03-19T12:35:00,mfh,79.03
2023-03-19T12:36:00,mfh,79.05
2023-03-19T12:37:00,mfh,78.98
2023-03-19T12:38:00,mfh,79.06
2023-03-19T12:39:00,mfh,78.71
2023-03-19T12:40:00,mfh,78.63
2023-03-19T12:41:00,mfh,83.61
2023-03-19T12:42:00,mfh,83.56
2023-03-19T12:43:00,mfh,83.81
2023-03-19T12:44:00,mfh,86.36
2023-03-19T12:45:00,mfh,86.28
2023-03-19T12:46:00,mfh,86.22
2023-03-19T12:47:00,mfh,86.00
2023-03-19T12:48:00,mfh,86.18
2023-03-19T12:49:00,mfh,85.85
2023-03-19T12:50:00,mfh,85.87
2023-03-19T12:51:00,mfh,85.77
2023-03-19T12:52:00,mfh,85.76
2023-03-19T12:53:00,mfh,85.65
2023-03-19T12:54:00,mfh,86.16
2023-03-19T12:55:00,mfh,85.79
2023-03-19T12:56:00,mfh,85.74
2023-03-19T12:57:00,mfh,85.61
2023-03-19T12:58:00,mfh,85.37
2023-03-19T12:59:00,mfh,85.74
2023-03-19T13:00:00,mfh,85.30
2023-03-19T13:01:00,mfh,85.51
2023-03-19T13:02:00,mfh,85.40
2023-03-19T13:03:00,mfh,85.49
2023-03-19T13:04:00,mfh,85.44
2023-03-19T13:05:00,mfh,85.48
2023-03-19T13:06:00,mfh,85.45
2023-03-19T13:07:00,mfh,85.58
2023-03-19T13:08:00,mfh,85.56
2023-03-19T13:09:00,mfh,85.71
2023-03-19T13:10:00,mfh,85.80
2023-03-19T13:11:00,mfh,85.29
2023-03-19T13:12:00,mfh,85.41
2023-03-19T13:13:00,mfh,85.56
2023-03-19T13:14:00,mfh,85.29
2023-03-19T13:15:00,mfh,82.19
2023-03-19T13:16:00,mfh,82.03
2023-03-19T13:17:00,mfh,82.21
2023-03-19T13:18:00,mfh,81.37